Home   Weather   Funchal   Past weeks

Flag for Portugal Past Weather in Funchal, Madeira, Portugal — Yesterday and Last 2 Weeks

Now
68 °F

Passing clouds.


Feels Like: 68 °F
Forecast: 65 / 71 °F
Wind: 18 mph from Southwest

Location: Aeroporto Da Madeira

Current Time: Dec 8, 2016 at 2:24:57 pm

Latest Report: Dec 8, 2016 at 2:00 pm


Visibility: N/A

Pressure: 30.12 "Hg

Humidity: 73%

Dew Point: 59 °F

Location of FunchalLocation

Past Weather in Funchal — Graph

°F

Funchal Temperature Yesterday

Maximum temperature yesterday: 68 °F (at 10:30 am)
Minimum temperature yesterday: 66 °F (at 12:00 am)
Average temperature yesterday: 66 °F

High & Low Weather Summary for the Past Weeks

 TemperatureHumidityPressure
High73 °F (Dec 4, 2:00 pm)94% (Nov 29, 1:30 am)30.24 "Hg (Nov 29, 1:30 am)
Low54 °F (Nov 24, 4:30 am)46% (Nov 26, 3:00 pm)29.56 "Hg (Dec 3, 1:00 am)
Average64 °F74%29.96 "Hg
* Reported Nov 23 1:00 pm — Dec 8 1:00 pm, Funchal, Weather by CustomWeather, © 2016

Note: Actual official high and low records may vary slightly from our data, if they occured in-between our weather recording intervals... More about our weather records

Advertising

Funchal Weather History for the Previous 24 Hours

Scroll right to see more
 ConditionsComfort  
Time TempWeatherWind HumidityBarometerVisibility
1:00 pm
Thu, Dec 8
70 °FScattered clouds.16 mph69%30.15 "HgN/A
12:30 pm68 °FScattered clouds.16 mph69%30.15 "HgN/A
12:00 pm68 °FScattered clouds.15 mph73%30.18 "HgN/A
11:30 am68 °FBroken clouds.15 mph69%30.18 "HgN/A
11:00 am68 °FPartly sunny.16 mph73%30.18 "HgN/A
10:30 am66 °FPartly sunny.13 mph78%30.18 "HgN/A
10:00 am66 °FPartly sunny.12 mph73%30.18 "HgN/A
9:30 am66 °FPartly sunny.13 mph73%30.15 "HgN/A
9:00 am64 °FPartly sunny.12 mph78%30.15 "HgN/A
8:30 am64 °FPassing clouds.13 mph78%30.15 "HgN/A
8:00 am64 °FPassing clouds.13 mph78%30.15 "HgN/A
7:30 am64 °FPassing clouds.13 mph78%30.15 "HgN/A
7:00 am64 °FPassing clouds.12 mph78%30.15 "HgN/A
6:30 am64 °FPassing clouds.10 mph78%30.15 "HgN/A
6:00 am64 °FPassing clouds.9 mph73%30.15 "HgN/A
5:30 am64 °FPassing clouds.9 mph78%30.15 "HgN/A
5:00 am66 °FPassing clouds.9 mph68%30.15 "HgN/A
4:30 am66 °FPassing clouds.9 mph73%30.12 "HgN/A
4:00 am64 °FPassing clouds.8 mph73%30.15 "HgN/A
3:30 am64 °FPassing clouds.9 mph73%30.15 "HgN/A
2:30 am63 °FPassing clouds.8 mph77%30.15 "HgN/A
2:00 am63 °FPassing clouds.6 mph77%30.15 "HgN/A
1:30 am66 °FPassing clouds.8 mph73%30.18 "HgN/A
1:00 am64 °FPassing clouds.9 mph78%30.18 "HgN/A
12:30 am64 °FPassing clouds.9 mph78%30.18 "HgN/A
12:00 am64 °FPassing clouds.8 mph78%30.18 "HgN/A
11:30 pm
Wed, Dec 7
66 °FPassing clouds.9 mph73%30.21 "HgN/A
11:00 pm66 °FPassing clouds.10 mph78%30.21 "HgN/A
10:30 pm66 °FPassing clouds.9 mph78%30.21 "HgN/A
10:00 pm66 °FPassing clouds.10 mph78%30.21 "HgN/A
9:30 pm66 °FPassing clouds.7 mph78%30.18 "HgN/A
9:00 pm66 °FPassing clouds.8 mph78%30.18 "HgN/A
8:30 pm66 °FPassing clouds.8 mph83%30.18 "HgN/A
8:00 pm66 °FPassing clouds.9 mph83%30.18 "HgN/A
7:30 pm66 °FPassing clouds.8 mph83%30.18 "HgN/A
7:00 pm66 °FScattered clouds.7 mph83%30.18 "HgN/A
6:30 pm66 °FScattered clouds.6 mph83%30.18 "HgN/A
6:00 pm66 °FScattered clouds.8 mph83%30.18 "HgN/A
5:30 pm66 °FScattered clouds.7 mph88%30.18 "HgN/A
5:00 pm66 °FPartly sunny.3 mph83%30.18 "HgN/A
4:30 pm66 °FBroken clouds.5 mph83%30.18 "HgN/A
4:00 pm66 °FPartly sunny.5 mph83%30.18 "HgN/A
3:30 pm66 °FPartly sunny.6 mph83%30.18 "HgN/A
2:30 pm66 °FBroken clouds.10 mph83%30.18 "HgN/A
2:00 pm66 °FBroken clouds.10 mph83%30.18 "HgN/A
Weather by CustomWeather, © 2016

See weather overviewHow to use our weather pages